| time (UTC) | temp F | wind direction | speed MPH | gust MPH | rain 1hr in | rain 24hr in | rain mn in | humidity % | barometer mb |
| 20260905071915 | 86 | 22 | 0.0 | 0.0 | 0.00 | 0.00 | 0.00 | 38 | 1013.5 |
| 20260905071415 | 86 | 18 | 0.0 | 0.0 | 0.00 | 0.00 | 0.00 | 38 | 1013.5 |
| 20260905070915 | 86 | 355 | 0.0 | 2.0 | 0.00 | 0.00 | 0.00 | 38 | 1013.5 |
| 20260905070416 | 86 | 355 | 2.0 | 3.0 | 0.00 | 0.00 | 0.00 | 39 | 1013.5 |
| 20260905065915 | 86 | 10 | 0.0 | 3.0 | 0.00 | 0.00 | 0.00 | 39 | 1013.5 |
| 20260905065415 | 87 | 12 | 0.0 | 1.0 | 0.00 | 0.00 | 0.00 | 39 | 1013.4 |
| 20260905064915 | 87 | 29 | 1.0 | 1.0 | 0.00 | 0.00 | 0.00 | 37 | 1013.4 |
| 20260905064415 | 87 | 38 | 0.0 | 2.0 | 0.00 | 0.00 | 0.00 | 37 | 1013.4 |
| 20260905063915 | 87 | 40 | 0.0 | 3.0 | 0.00 | 0.00 | 0.00 | 37 | 1013.4 |
| 20260905063415 | 87 | 46 | 1.0 | 2.0 | 0.00 | 0.00 | 0.00 | 37 | 1013.3 |
| 20260905062915 | 87 | 49 | 1.0 | 3.0 | 0.00 | 0.00 | 0.00 | 37 | 1013.4 |
| 20260905062417 | 87 | 34 | 1.0 | 2.0 | 0.00 | 0.00 | 0.00 | 36 | 1013.3 |
| 20260905061915 | 88 | 0 | 0.0 | 2.0 | 0.00 | 0.00 | 0.00 | 37 | 1013.2 |
| 20260905061415 | 88 | 348 | 0.0 | 2.0 | 0.00 | 0.00 | 0.00 | 36 | 1013.2 |
| 20260905060916 | 88 | 338 | 2.0 | 2.0 | 0.00 | 0.00 | 0.00 | 36 | 1013.2 |
| 20260905060415 | 88 | 331 | 1.0 | 2.0 | 0.00 | 0.00 | 0.00 | 36 | 1013.1 |
| 20260905055915 | 88 | 346 | 0.0 | 3.0 | 0.00 | 0.00 | 0.00 | 36 | 1013.1 |
| 20260905055415 | 88 | 313 | 0.0 | 2.0 | 0.00 | 0.00 | 0.00 | 36 | 1013.1 |
| 20260905054915 | 88 | 319 | 1.0 | 3.0 | 0.00 | 0.00 | 0.00 | 37 | 1013.1 |
| 20260905054416 | 88 | 337 | 2.0 | 3.0 | 0.00 | 0.00 | 0.00 | 38 | 1013.0 |
| 20260905053915 | 88 | 349 | 2.0 | 2.0 | 0.00 | 0.00 | 0.00 | 38 | 1013.0 |
| 20260905053415 | 89 | 337 | 0.0 | 2.0 | 0.00 | 0.00 | 0.00 | 37 | 1013.0 |
| 20260905052915 | 89 | 355 | 2.0 | 2.0 | 0.00 | 0.00 | 0.00 | 36 | 1013.0 |
| 20260905052415 | 90 | 297 | 0.0 | 0.0 | 0.00 | 0.00 | 0.00 | 35 | 1013.0 |
| 20260905051915 | 90 | 297 | 0.0 | 1.0 | 0.00 | 0.00 | 0.00 | 36 | 1013.0 |
| 20260905051415 | 90 | 294 | 0.0 | 3.0 | 0.00 | 0.00 | 0.00 | 37 | 1012.9 |
| 20260905050915 | 90 | 246 | 1.0 | 3.0 | 0.00 | 0.00 | 0.00 | 38 | 1012.9 |
| 20260905050417 | 90 | 256 | 0.0 | 3.0 | 0.00 | 0.00 | 0.00 | 39 | 1012.9 |
| 20260905045915 | 90 | 245 | 0.0 | 1.0 | 0.00 | 0.00 | 0.00 | 38 | 1012.9 |
| 20260905045415 | 90 | 243 | 0.0 | 4.0 | 0.00 | 0.00 | 0.00 | 38 | 1012.8 |
| 20260905044915 | 90 | 269 | 4.0 | 6.0 | 0.00 | 0.00 | 0.00 | 40 | 1012.8 |
| 20260905044415 | 91 | 247 | 3.0 | 3.0 | 0.00 | 0.00 | 0.00 | 39 | 1012.7 |
| 20260905043915 | 91 | 157 | 0.0 | 1.0 | 0.00 | 0.00 | 0.00 | 38 | 1012.7 |
| 20260905043416 | 91 | 151 | 0.0 | 2.0 | 0.00 | 0.00 | 0.00 | 39 | 1012.7 |
| 20260905042916 | 90 | 129 | 0.0 | 0.0 | 0.00 | 0.00 | 0.00 | 39 | 1012.6 |
| 20260905042416 | 90 | 129 | 0.0 | 1.0 | 0.00 | 0.00 | 0.00 | 39 | 1012.6 |
| 20260905041915 | 90 | 26 | 0.0 | 0.0 | 0.00 | 0.00 | 0.00 | 39 | 1012.5 |
| 20260905041416 | 90 | 26 | 0.0 | 0.0 | 0.00 | 0.00 | 0.00 | 40 | 1012.4 |
| 20260905040916 | 90 | 26 | 0.0 | 0.0 | 0.00 | 0.00 | 0.00 | 40 | 1012.5 |
| 20260905040415 | 90 | 26 | 0.0 | 0.0 | 0.00 | 0.00 | 0.00 | 40 | 1012.4 |
| 20260905035915 | 90 | 26 | 0.0 | 0.0 | 0.00 | 0.00 | 0.00 | 39 | 1012.3 |
| 20260905035415 | 90 | 26 | 0.0 | 0.0 | 0.00 | 0.00 | 0.00 | 39 | 1012.3 |
| 20260905034915 | 90 | 26 | 0.0 | 0.0 | 0.00 | 0.00 | 0.00 | 39 | 1012.3 |
| 20260905034415 | 90 | 26 | 0.0 | 0.0 | 0.00 | 0.00 | 0.00 | 39 | 1012.2 |
| 20260905033915 | 90 | 26 | 0.0 | 0.0 | 0.00 | 0.00 | 0.00 | 38 | 1012.2 |
| 20260905033416 | 90 | 26 | 0.0 | 0.0 | 0.00 | 0.00 | 0.00 | 38 | 1012.2 |
| 20260905032915 | 90 | 26 | 0.0 | 0.0 | 0.00 | 0.00 | 0.00 | 37 | 1012.1 |
| 20260905032415 | 90 | 26 | 0.0 | 2.0 | 0.00 | 0.00 | 0.00 | 37 | 1012.1 |
| 20260905031916 | 90 | 26 | 1.0 | 2.0 | 0.00 | 0.00 | 0.00 | 37 | 1012.0 |
| 20260905031416 | 90 | 19 | 0.0 | 2.0 | 0.00 | 0.00 | 0.00 | 37 | 1011.9 |
| 20260905030915 | 90 | 19 | 2.0 | 2.0 | 0.00 | 0.00 | 0.00 | 37 | 1011.9 |
| 20260905030416 | 90 | 338 | 0.0 | 1.0 | 0.00 | 0.00 | 0.00 | 37 | 1011.8 |
| 20260905025915 | 90 | 338 | 0.0 | 1.0 | 0.00 | 0.00 | 0.00 | 36 | 1011.8 |
| 20260905025417 | 91 | 338 | 0.0 | 1.0 | 0.00 | 0.00 | 0.00 | 36 | 1011.7 |
| 20260905024916 | 91 | 338 | 0.0 | 0.0 | 0.00 | 0.00 | 0.00 | 36 | 1011.7 |
| 20260905024415 | 91 | 331 | 0.0 | 1.0 | 0.00 | 0.00 | 0.00 | 36 | 1011.6 |
| 20260905023916 | 91 | 325 | 0.0 | 1.0 | 0.00 | 0.00 | 0.00 | 36 | 1011.6 |
| 20260905023415 | 91 | 325 | 1.0 | 2.0 | 0.00 | 0.00 | 0.00 | 35 | 1011.6 |
| 20260905022916 | 91 | 318 | 1.0 | 2.0 | 0.00 | 0.00 | 0.00 | 35 | 1011.5 |
| 20260905022415 | 91 | 292 | 1.0 | 1.0 | 0.00 | 0.00 | 0.00 | 35 | 1011.4 |
| 20260905021915 | 91 | 290 | 0.0 | 1.0 | 0.00 | 0.00 | 0.00 | 35 | 1011.4 |
| 20260905021415 | 92 | 306 | 0.0 | 1.0 | 0.00 | 0.00 | 0.00 | 33 | 1011.4 |
| 20260905020915 | 92 | 306 | 0.0 | 0.0 | 0.00 | 0.00 | 0.00 | 33 | 1011.3 |
| 20260905020416 | 92 | 306 | 0.0 | 1.0 | 0.00 | 0.00 | 0.00 | 33 | 1011.3 |
| 20260905015915 | 92 | 305 | 0.0 | 1.0 | 0.00 | 0.00 | 0.00 | 33 | 1011.3 |
| 20260905015416 | 93 | 304 | 0.0 | 1.0 | 0.00 | 0.00 | 0.00 | 32 | 1011.2 |
| 20260905014915 | 94 | 307 | 0.0 | 2.0 | 0.00 | 0.00 | 0.00 | 31 | 1011.2 |
| 20260905014415 | 95 | 267 | 0.0 | 4.0 | 0.00 | 0.00 | 0.00 | 30 | 1011.2 |
| 20260905013915 | 95 | 236 | 2.0 | 5.0 | 0.00 | 0.00 | 0.00 | 29 | 1011.2 |
| 20260905013415 | 95 | 244 | 1.0 | 6.0 | 0.00 | 0.00 | 0.00 | 29 | 1011.2 |
| 20260905012916 | 95 | 213 | 3.0 | 6.0 | 0.00 | 0.00 | 0.00 | 29 | 1011.1 |
| 20260905012415 | 95 | 220 | 0.0 | 4.0 | 0.00 | 0.00 | 0.00 | 29 | 1011.1 |
| 20260905011915 | 95 | 234 | 2.0 | 4.0 | 0.00 | 0.00 | 0.00 | 29 | 1011.1 |
| 20260905011415 | 95 | 211 | 1.0 | 2.0 | 0.00 | 0.00 | 0.00 | 29 | 1011.1 |
| 20260905010915 | 96 | 164 | 1.0 | 2.0 | 0.00 | 0.00 | 0.00 | 29 | 1011.0 |
| 20260905010416 | 96 | 0 | 0.0 | 4.0 | 0.00 | 0.00 | 0.00 | 29 | 1011.0 |
| 20260905005915 | 96 | 236 | 2.0 | 6.0 | 0.00 | 0.00 | 0.00 | 29 | 1011.1 |
| 20260905005415 | 96 | 231 | 1.0 | 7.0 | 0.00 | 0.00 | 0.00 | 29 | 1011.1 |
| 20260905004915 | 97 | 240 | 4.0 | 8.0 | 0.00 | 0.00 | 0.00 | 29 | 1011.1 |
| 20260905004415 | 97 | 223 | 4.0 | 5.0 | 0.00 | 0.00 | 0.00 | 29 | 1011.2 |
| 20260905003915 | 97 | 240 | 1.0 | 5.0 | 0.00 | 0.00 | 0.00 | 29 | 1011.2 |
| 20260905003415 | 97 | 236 | 5.0 | 6.0 | 0.00 | 0.00 | 0.00 | 29 | 1011.2 |
| 20260905002915 | 97 | 269 | 3.0 | 8.0 | 0.00 | 0.00 | 0.00 | 29 | 1011.2 |
| 20260905002416 | 97 | 254 | 8.0 | 8.0 | 0.00 | 0.00 | 0.00 | 30 | 1011.2 |
| 20260905001915 | 97 | 251 | 3.0 | 5.0 | 0.00 | 0.00 | 0.00 | 30 | 1011.2 |
| 20260905001415 | 97 | 196 | 2.0 | 4.0 | 0.00 | 0.00 | 0.00 | 29 | 1011.3 |
| 20260905000915 | 97 | 216 | 2.0 | 4.0 | 0.00 | 0.00 | 0.00 | 29 | 1011.3 |
| 20260905000417 | 97 | 102 | 1.0 | 2.0 | 0.00 | 0.00 | 0.00 | 30 | 1011.3 |
| 20260904235915 | 97 | 172 | 0.0 | 10.0 | 0.00 | 0.00 | 0.00 | 29 | 1011.3 |
| 20260904235415 | 98 | 239 | 6.0 | 6.0 | 0.00 | 0.00 | 0.00 | 29 | 1011.3 |
| 20260904234915 | 98 | 235 | 2.0 | 9.0 | 0.00 | 0.00 | 0.00 | 28 | 1011.3 |
| 20260904234415 | 98 | 237 | 4.0 | 6.0 | 0.00 | 0.00 | 0.00 | 29 | 1011.3 |
| 20260904233915 | 98 | 188 | 4.0 | 9.0 | 0.00 | 0.00 | 0.00 | 28 | 1011.3 |
| 20260904233415 | 98 | 225 | 3.0 | 9.0 | 0.00 | 0.00 | 0.00 | 29 | 1011.3 |
| 20260904232915 | 98 | 180 | 7.0 | 13.0 | 0.00 | 0.00 | 0.00 | 28 | 1011.4 |
| 20260904232415 | 98 | 177 | 9.0 | 7.0 | 0.00 | 0.00 | 0.00 | 29 | 1011.4 |
| 20260904231915 | 98 | 163 | 3.0 | 4.0 | 0.00 | 0.00 | 0.00 | 29 | 1011.5 |
| 20260904231417 | 98 | 202 | 2.0 | 7.0 | 0.00 | 0.00 | 0.00 | 29 | 1011.6 |
| 20260904230916 | 98 | 221 | 3.0 | 12.0 | 0.00 | 0.00 | 0.00 | 29 | 1011.5 |
| 20260904230415 | 98 | 199 | 7.0 | 9.0 | 0.00 | 0.00 | 0.00 | 29 | 1011.5 |
| 20260904225915 | 98 | 189 | 7.0 | 11.0 | 0.00 | 0.00 | 0.00 | 28 | 1011.6 |
| 20260904225415 | 98 | 211 | 7.0 | 8.0 | 0.00 | 0.00 | 0.00 | 28 | 1011.6 |
| 20260904224915 | 99 | 245 | 7.0 | 12.0 | 0.00 | 0.00 | 0.00 | 28 | 1011.7 |
| 20260904224415 | 99 | 236 | 5.0 | 9.0 | 0.00 | 0.00 | 0.00 | 27 | 1011.7 |
| 20260904223915 | 99 | 252 | 7.0 | 10.0 | 0.00 | 0.00 | 0.00 | 27 | 1011.7 |
| 20260904223415 | 98 | 202 | 3.0 | 14.0 | 0.00 | 0.00 | 0.00 | 28 | 1011.7 |
| 20260904222915 | 98 | 279 | 4.0 | 5.0 | 0.00 | 0.00 | 0.00 | 28 | 1011.7 |
| 20260904222415 | 99 | 229 | 2.0 | 4.0 | 0.00 | 0.00 | 0.00 | 28 | 1011.8 |
| 20260904221915 | 97 | 223 | 0.0 | 5.0 | 0.00 | 0.00 | 0.00 | 29 | 1012.0 |
| 20260904221416 | 98 | 216 | 4.0 | 7.0 | 0.00 | 0.00 | 0.00 | 28 | 1012.0 |
| 20260904220915 | 97 | 202 | 2.0 | 6.0 | 0.00 | 0.00 | 0.00 | 28 | 1012.1 |
| 20260904220415 | 97 | 146 | 1.0 | 7.0 | 0.00 | 0.00 | 0.00 | 28 | 1012.1 |
| 20260904215915 | 97 | 247 | 1.0 | 7.0 | 0.00 | 0.00 | 0.00 | 27 | 1012.2 |
| 20260904215415 | 97 | 158 | 3.0 | 9.0 | 0.00 | 0.00 | 0.00 | 30 | 1012.3 |
| 20260904214915 | 97 | 192 | 7.0 | 10.0 | 0.00 | 0.00 | 0.00 | 30 | 1012.3 |
| 20260904214415 | 97 | 220 | 6.0 | 9.0 | 0.00 | 0.00 | 0.00 | 30 | 1012.4 |
| 20260904213916 | 98 | 261 | 3.0 | 6.0 | 0.00 | 0.00 | 0.00 | 29 | 1012.4 |
| 20260904213415 | 97 | 214 | 5.0 | 7.0 | 0.00 | 0.00 | 0.00 | 30 | 1012.5 |
| 20260904212916 | 98 | 355 | 4.0 | 5.0 | 0.00 | 0.00 | 0.00 | 29 | 1012.5 |
| 20260904212415 | 98 | 268 | 5.0 | 10.0 | 0.00 | 0.00 | 0.00 | 30 | 1012.7 |
| 20260904211915 | 98 | 246 | 10.0 | 15.0 | 0.00 | 0.00 | 0.00 | 31 | 1012.7 |
| 20260904211415 | 98 | 223 | 6.0 | 15.0 | 0.00 | 0.00 | 0.00 | 31 | 1012.7 |
| 20260904210915 | 97 | 188 | 2.0 | 8.0 | 0.00 | 0.00 | 0.00 | 32 | 1012.7 |
| 20260904210415 | 97 | 213 | 7.0 | 12.0 | 0.00 | 0.00 | 0.00 | 31 | 1012.8 |
| 20260904205916 | 97 | 263 | 4.0 | 7.0 | 0.00 | 0.00 | 0.00 | 31 | 1012.8 |
| 20260904205415 | 97 | 229 | 1.0 | 9.0 | 0.00 | 0.00 | 0.00 | 32 | 1012.9 |
| 20260904204915 | 97 | 184 | 5.0 | 11.0 | 0.00 | 0.00 | 0.00 | 33 | 1012.9 |
| 20260904204415 | 96 | 114 | 3.0 | 4.0 | 0.00 | 0.00 | 0.00 | 34 | 1013.0 |
| 20260904203915 | 96 | 229 | 0.0 | 8.0 | 0.00 | 0.00 | 0.00 | 34 | 1013.1 |
| 20260904203415 | 96 | 157 | 3.0 | 7.0 | 0.00 | 0.00 | 0.00 | 34 | 1013.2 |
| 20260904202915 | 96 | 247 | 2.0 | 9.0 | 0.00 | 0.00 | 0.00 | 32 | 1013.3 |
| 20260904202416 | 97 | 187 | 3.0 | 9.0 | 0.00 | 0.00 | 0.00 | 31 | 1013.4 |
| 20260904201915 | 97 | 236 | 9.0 | 9.0 | 0.00 | 0.00 | 0.00 | 32 | 1013.3 |
| 20260904201415 | 96 | 230 | 4.0 | 5.0 | 0.00 | 0.00 | 0.00 | 34 | 1013.4 |
| 20260904200915 | 96 | 234 | 1.0 | 7.0 | 0.00 | 0.00 | 0.00 | 34 | 1013.5 |
| 20260904200415 | 96 | 186 | 2.0 | 12.0 | 0.00 | 0.00 | 0.00 | 34 | 1013.5 |
| 20260904195915 | 97 | 111 | 2.0 | 7.0 | 0.00 | 0.00 | 0.00 | 36 | 1013.6 |
| 20260904195415 | 96 | 173 | 3.0 | 8.0 | 0.00 | 0.00 | 0.00 | 35 | 1013.7 |
| 20260904194915 | 96 | 202 | 7.0 | 10.0 | 0.00 | 0.00 | 0.00 | 36 | 1013.7 |
| 20260904194415 | 95 | 226 | 4.0 | 6.0 | 0.00 | 0.00 | 0.00 | 37 | 1013.9 |
| 20260904193915 | 95 | 169 | 3.0 | 7.0 | 0.00 | 0.00 | 0.00 | 37 | 1013.8 |
| 20260904193415 | 96 | 192 | 4.0 | 13.0 | 0.00 | 0.00 | 0.00 | 36 | 1013.9 |
| 20260904192916 | 96 | 189 | 10.0 | 11.0 | 0.00 | 0.00 | 0.00 | 37 | 1013.9 |
| 20260904192416 | 95 | 249 | 4.0 | 7.0 | 0.00 | 0.00 | 0.00 | 37 | 1014.0 |
| 20260904191915 | 96 | 210 | 2.0 | 8.0 | 0.00 | 0.00 | 0.00 | 35 | 1014.1 |
| 20260904191415 | 96 | 233 | 8.0 | 11.0 | 0.00 | 0.00 | 0.00 | 35 | 1014.2 |
| 20260904190915 | 95 | 215 | 7.0 | 11.0 | 0.00 | 0.00 | 0.00 | 36 | 1014.2 |
| 20260904190415 | 95 | 240 | 1.0 | 10.0 | 0.00 | 0.00 | 0.00 | 36 | 1014.4 |
| 20260904185915 | 95 | 188 | 3.0 | 10.0 | 0.00 | 0.00 | 0.00 | 37 | 1014.4 |
| 20260904185415 | 95 | 185 | 1.0 | 12.0 | 0.00 | 0.00 | 0.00 | 37 | 1014.4 |
| 20260904184915 | 94 | 203 | 4.0 | 8.0 | 0.00 | 0.00 | 0.00 | 37 | 1014.4 |
| 20260904184416 | 95 | 235 | 5.0 | 10.0 | 0.00 | 0.00 | 0.00 | 38 | 1014.6 |
| 20260904183916 | 95 | 192 | 4.0 | 11.0 | 0.00 | 0.00 | 0.00 | 37 | 1014.5 |
| 20260904183415 | 95 | 167 | 7.0 | 10.0 | 0.00 | 0.00 | 0.00 | 39 | 1014.6 |
| 20260904182915 | 94 | 180 | 11.0 | 11.0 | 0.00 | 0.00 | 0.00 | 39 | 1014.7 |
| 20260904182415 | 94 | 174 | 4.0 | 9.0 | 0.00 | 0.00 | 0.00 | 40 | 1014.8 |
| 20260904181915 | 93 | 97 | 1.0 | 12.0 | 0.00 | 0.00 | 0.00 | 41 | 1014.8 |
| 20260904181415 | 94 | 172 | 5.0 | 9.0 | 0.00 | 0.00 | 0.00 | 42 | 1014.8 |
| 20260904180915 | 93 | 163 | 7.0 | 11.0 | 0.00 | 0.00 | 0.00 | 40 | 1014.8 |
| 20260904180415 | 93 | 148 | 3.0 | 10.0 | 0.00 | 0.00 | 0.00 | 41 | 1014.9 |
| 20260904175915 | 92 | 134 | 3.0 | 10.0 | 0.00 | 0.00 | 0.00 | 42 | 1014.9 |
| 20260904175415 | 93 | 198 | 3.0 | 11.0 | 0.00 | 0.00 | 0.00 | 42 | 1015.0 |
| 20260904174915 | 93 | 184 | 5.0 | 11.0 | 0.00 | 0.00 | 0.00 | 43 | 1015.0 |
| 20260904174415 | 93 | 178 | 3.0 | 13.0 | 0.00 | 0.00 | 0.00 | 41 | 1015.0 |
| 20260904173915 | 93 | 120 | 5.0 | 9.0 | 0.00 | 0.00 | 0.00 | 44 | 1015.1 |
| 20260904173415 | 92 | 164 | 5.0 | 8.0 | 0.00 | 0.00 | 0.00 | 45 | 1015.1 |
| 20260904172916 | 92 | 150 | 5.0 | 12.0 | 0.00 | 0.00 | 0.00 | 46 | 1015.1 |
| 20260904172415 | 92 | 150 | 6.0 | 11.0 | 0.00 | 0.00 | 0.00 | 45 | 1015.1 |
| 20260904171915 | 92 | 176 | 5.0 | 9.0 | 0.00 | 0.00 | 0.00 | 45 | 1015.1 |
| 20260904171415 | 91 | 163 | 5.0 | 9.0 | 0.00 | 0.00 | 0.00 | 47 | 1015.1 |
| 20260904170915 | 91 | 195 | 4.0 | 12.0 | 0.00 | 0.00 | 0.00 | 46 | 1015.1 |
| 20260904170415 | 91 | 124 | 7.0 | 10.0 | 0.00 | 0.00 | 0.00 | 46 | 1015.0 |
| 20260904165915 | 91 | 148 | 1.0 | 11.0 | 0.00 | 0.00 | 0.00 | 47 | 1015.0 |
| 20260904165415 | 90 | 155 | 2.0 | 8.0 | 0.00 | 0.00 | 0.00 | 47 | 1015.0 |
| 20260904164915 | 90 | 152 | 8.0 | 10.0 | 0.00 | 0.00 | 0.00 | 48 | 1015.0 |
| 20260904164415 | 90 | 115 | 8.0 | 10.0 | 0.00 | 0.00 | 0.00 | 47 | 1015.0 |
| 20260904163916 | 90 | 88 | 7.0 | 10.0 | 0.00 | 0.00 | 0.00 | 48 | 1014.9 |
| 20260904163416 | 90 | 204 | 4.0 | 10.0 | 0.00 | 0.00 | 0.00 | 47 | 1015.0 |
| 20260904162915 | 89 | 126 | 4.0 | 10.0 | 0.00 | 0.00 | 0.00 | 49 | 1014.9 |
| 20260904162415 | 89 | 147 | 4.0 | 10.0 | 0.00 | 0.00 | 0.00 | 50 | 1014.9 |
| 20260904161916 | 89 | 145 | 4.0 | 9.0 | 0.00 | 0.00 | 0.00 | 52 | 1014.9 |
| 20260904161415 | 89 | 170 | 7.0 | 11.0 | 0.00 | 0.00 | 0.00 | 51 | 1014.9 |
| 20260904160915 | 89 | 134 | 2.0 | 10.0 | 0.00 | 0.00 | 0.00 | 52 | 1014.9 |
| 20260904160415 | 88 | 153 | 3.0 | 9.0 | 0.00 | 0.00 | 0.00 | 52 | 1014.9 |
| 20260904155915 | 88 | 185 | 3.0 | 10.0 | 0.00 | 0.00 | 0.00 | 52 | 1014.8 |
| 20260904155416 | 88 | 146 | 6.0 | 10.0 | 0.00 | 0.00 | 0.00 | 53 | 1014.8 |
| 20260904154915 | 88 | 130 | 3.0 | 8.0 | 0.00 | 0.00 | 0.00 | 53 | 1014.8 |
| 20260904154415 | 88 | 135 | 5.0 | 9.0 | 0.00 | 0.00 | 0.00 | 54 | 1014.8 |
| 20260904153915 | 88 | 155 | 7.0 | 10.0 | 0.00 | 0.00 | 0.00 | 54 | 1014.8 |
| 20260904153415 | 87 | 173 | 6.0 | 9.0 | 0.00 | 0.00 | 0.00 | 55 | 1014.8 |
| 20260904152916 | 87 | 152 | 4.0 | 8.0 | 0.00 | 0.00 | 0.00 | 55 | 1014.8 |
| 20260904152417 | 87 | 123 | 4.0 | 10.0 | 0.00 | 0.00 | 0.00 | 55 | 1014.7 |
| 20260904151915 | 87 | 101 | 7.0 | 11.0 | 0.00 | 0.00 | 0.00 | 55 | 1014.8 |
| 20260904151415 | 86 | 115 | 3.0 | 7.0 | 0.00 | 0.00 | 0.00 | 56 | 1014.8 |
| 20260904150915 | 86 | 139 | 5.0 | 9.0 | 0.00 | 0.00 | 0.00 | 56 | 1014.7 |
| 20260904150416 | 86 | 137 | 2.0 | 10.0 | 0.00 | 0.00 | 0.00 | 56 | 1014.7 |
| 20260904145915 | 86 | 166 | 1.0 | 8.0 | 0.00 | 0.00 | 0.00 | 57 | 1014.7 |
| 20260904145415 | 85 | 129 | 7.0 | 9.0 | 0.00 | 0.00 | 0.00 | 57 | 1014.7 |
| 20260904144915 | 86 | 166 | 10.0 | 10.0 | 0.00 | 0.00 | 0.00 | 57 | 1014.6 |
| 20260904144415 | 85 | 130 | 6.0 | 8.0 | 0.00 | 0.00 | 0.00 | 57 | 1014.6 |
| 20260904143915 | 85 | 136 | 5.0 | 7.0 | 0.00 | 0.00 | 0.00 | 57 | 1014.5 |
| 20260904143415 | 85 | 113 | 2.0 | 8.0 | 0.00 | 0.00 | 0.00 | 57 | 1014.5 |
| 20260904142915 | 85 | 126 | 4.0 | 8.0 | 0.00 | 0.00 | 0.00 | 58 | 1014.5 |
| 20260904142415 | 84 | 151 | 3.0 | 7.0 | 0.00 | 0.00 | 0.00 | 59 | 1014.4 |
| 20260904141915 | 84 | 167 | 2.0 | 7.0 | 0.00 | 0.00 | 0.00 | 59 | 1014.3 |
| 20260904141415 | 83 | 184 | 4.0 | 8.0 | 0.00 | 0.00 | 0.00 | 60 | 1014.3 |
| 20260904140915 | 83 | 117 | 2.0 | 6.0 | 0.00 | 0.00 | 0.00 | 60 | 1014.3 |
| 20260904140415 | 83 | 120 | 5.0 | 7.0 | 0.00 | 0.00 | 0.00 | 61 | 1014.2 |
| 20260904135915 | 83 | 125 | 2.0 | 10.0 | 0.00 | 0.00 | 0.00 | 61 | 1014.1 |
| 20260904135415 | 83 | 169 | 3.0 | 8.0 | 0.00 | 0.00 | 0.00 | 61 | 1014.1 |
| 20260904134915 | 83 | 146 | 0.0 | 6.0 | 0.00 | 0.00 | 0.00 | 61 | 1014.1 |
| 20260904134415 | 83 | 132 | 2.0 | 6.0 | 0.00 | 0.00 | 0.00 | 61 | 1014.0 |
| 20260904133916 | 83 | 111 | 1.0 | 5.0 | 0.00 | 0.00 | 0.00 | 61 | 1013.9 |
| 20260904133415 | 83 | 111 | 1.0 | 8.0 | 0.00 | 0.00 | 0.00 | 61 | 1013.8 |
| 20260904132916 | 83 | 126 | 2.0 | 5.0 | 0.00 | 0.00 | 0.00 | 60 | 1013.8 |
| 20260904132416 | 83 | 128 | 3.0 | 7.0 | 0.00 | 0.00 | 0.00 | 60 | 1013.7 |
| 20260904131915 | 83 | 165 | 1.0 | 8.0 | 0.00 | 0.00 | 0.00 | 60 | 1013.5 |
| 20260904131415 | 83 | 124 | 3.0 | 6.0 | 0.00 | 0.00 | 0.00 | 60 | 1013.5 |
| 20260904130915 | 83 | 132 | 3.0 | 6.0 | 0.00 | 0.00 | 0.00 | 60 | 1013.4 |
| 20260904130415 | 83 | 105 | 3.0 | 6.0 | 0.00 | 0.00 | 0.00 | 60 | 1013.3 |
| 20260904125916 | 83 | 130 | 4.0 | 7.0 | 0.00 | 0.00 | 0.00 | 60 | 1013.3 |
| 20260904125416 | 83 | 119 | 2.0 | 5.0 | 0.00 | 0.00 | 0.00 | 60 | 1013.2 |
| 20260904124915 | 83 | 85 | 1.0 | 7.0 | 0.00 | 0.00 | 0.00 | 60 | 1013.2 |
| 20260904124416 | 83 | 115 | 5.0 | 6.0 | 0.00 | 0.00 | 0.00 | 59 | 1013.2 |
| 20260904123915 | 83 | 153 | 3.0 | 7.0 | 0.00 | 0.00 | 0.00 | 59 | 1013.1 |
| 20260904123415 | 83 | 154 | 3.0 | 5.0 | 0.00 | 0.00 | 0.00 | 59 | 1013.1 |
| 20260904122915 | 83 | 108 | 0.0 | 5.0 | 0.00 | 0.00 | 0.00 | 60 | 1013.0 |
| 20260904122416 | 83 | 144 | 4.0 | 5.0 | 0.00 | 0.00 | 0.00 | 59 | 1013.0 |
| 20260904121915 | 83 | 122 | 4.0 | 8.0 | 0.00 | 0.00 | 0.00 | 59 | 1013.0 |
| 20260904121416 | 83 | 101 | 2.0 | 7.0 | 0.00 | 0.00 | 0.00 | 59 | 1012.9 |
| 20260904120915 | 83 | 115 | 4.0 | 7.0 | 0.00 | 0.00 | 0.00 | 59 | 1012.9 |
| 20260904120415 | 83 | 161 | 3.0 | 7.0 | 0.00 | 0.00 | 0.00 | 59 | 1012.9 |
| 20260904115915 | 83 | 126 | 2.0 | 5.0 | 0.00 | 0.00 | 0.00 | 58 | 1012.8 |
| 20260904115415 | 83 | 143 | 2.0 | 5.0 | 0.00 | 0.00 | 0.00 | 58 | 1012.9 |
| 20260904114915 | 83 | 128 | 5.0 | 9.0 | 0.00 | 0.00 | 0.00 | 58 | 1012.9 |
| 20260904114415 | 83 | 132 | 2.0 | 5.0 | 0.00 | 0.00 | 0.00 | 58 | 1012.8 |
| 20260904113915 | 84 | 141 | 2.0 | 7.0 | 0.00 | 0.00 | 0.00 | 58 | 1012.8 |
| 20260904113415 | 84 | 121 | 3.0 | 5.0 | 0.00 | 0.00 | 0.00 | 58 | 1012.9 |
| 20260904112915 | 84 | 145 | 2.0 | 10.0 | 0.00 | 0.00 | 0.00 | 57 | 1012.9 |
| 20260904112415 | 84 | 111 | 5.0 | 7.0 | 0.00 | 0.00 | 0.00 | 57 | 1012.9 |
| 20260904111915 | 84 | 113 | 3.0 | 9.0 | 0.00 | 0.00 | 0.00 | 57 | 1012.9 |
| 20260904111415 | 84 | 117 | 5.0 | 8.0 | 0.00 | 0.00 | 0.00 | 57 | 1012.9 |
| 20260904110915 | 84 | 119 | 3.0 | 5.0 | 0.00 | 0.00 | 0.00 | 57 | 1012.9 |
| 20260904110415 | 84 | 110 | 1.0 | 7.0 | 0.00 | 0.00 | 0.00 | 56 | 1012.9 |
| 20260904105916 | 84 | 144 | 4.0 | 6.0 | 0.00 | 0.00 | 0.00 | 56 | 1012.8 |
| 20260904105415 | 84 | 146 | 1.0 | 9.0 | 0.00 | 0.00 | 0.00 | 56 | 1012.8 |
| 20260904104915 | 84 | 159 | 2.0 | 6.0 | 0.00 | 0.00 | 0.00 | 56 | 1012.8 |
| 20260904104415 | 84 | 109 | 1.0 | 5.0 | 0.00 | 0.00 | 0.00 | 57 | 1012.7 |
| 20260904103915 | 84 | 154 | 2.0 | 6.0 | 0.00 | 0.00 | 0.00 | 56 | 1012.7 |
| 20260904103415 | 84 | 114 | 2.0 | 9.0 | 0.00 | 0.00 | 0.00 | 56 | 1012.7 |
| 20260904102916 | 84 | 96 | 6.0 | 9.0 | 0.00 | 0.00 | 0.00 | 56 | 1012.6 |
| 20260904102417 | 84 | 153 | 4.0 | 9.0 | 0.00 | 0.00 | 0.00 | 56 | 1012.6 |
| 20260904101916 | 84 | 139 | 2.0 | 6.0 | 0.00 | 0.00 | 0.00 | 56 | 1012.6 |
| 20260904101415 | 84 | 128 | 3.0 | 5.0 | 0.00 | 0.00 | 0.00 | 56 | 1012.5 |
| 20260904100915 | 84 | 113 | 3.0 | 4.0 | 0.00 | 0.00 | 0.00 | 56 | 1012.5 |
| 20260904100415 | 85 | 148 | 2.0 | 5.0 | 0.00 | 0.00 | 0.00 | 56 | 1012.4 |
| 20260904095914 | 85 | 150 | 3.0 | 6.0 | 0.00 | 0.00 | 0.00 | 56 | 1012.5 |
| 20260904095415 | 85 | 138 | 3.0 | 5.0 | 0.00 | 0.00 | 0.00 | 56 | 1012.5 |
| 20260904094915 | 85 | 175 | 1.0 | 7.0 | 0.00 | 0.00 | 0.00 | 55 | 1012.5 |
| 20260904094415 | 85 | 144 | 0.0 | 5.0 | 0.00 | 0.00 | 0.00 | 55 | 1012.6 |
| 20260904093915 | 85 | 107 | 4.0 | 8.0 | 0.00 | 0.00 | 0.00 | 55 | 1012.5 |
| 20260904093415 | 85 | 171 | 2.0 | 10.0 | 0.00 | 0.00 | 0.00 | 54 | 1012.4 |
| 20260904092916 | 85 | 115 | 7.0 | 8.0 | 0.00 | 0.00 | 0.00 | 54 | 1012.5 |
| 20260904092415 | 85 | 144 | 4.0 | 9.0 | 0.00 | 0.00 | 0.00 | 54 | 1012.4 |
| 20260904091916 | 85 | 140 | 3.0 | 6.0 | 0.00 | 0.00 | 0.00 | 54 | 1012.5 |
| 20260904091415 | 85 | 181 | 3.0 | 8.0 | 0.00 | 0.00 | 0.00 | 54 | 1012.5 |
| 20260904090915 | 85 | 160 | 5.0 | 8.0 | 0.00 | 0.00 | 0.00 | 54 | 1012.5 |
| 20260904090415 | 85 | 116 | 1.0 | 4.0 | 0.00 | 0.00 | 0.00 | 54 | 1012.6 |
| 20260904085915 | 85 | 155 | 0.0 | 5.0 | 0.00 | 0.00 | 0.00 | 54 | 1012.6 |
| 20260904085415 | 85 | 127 | 4.0 | 8.0 | 0.00 | 0.00 | 0.00 | 54 | 1012.6 |
| 20260904084915 | 85 | 106 | 3.0 | 12.0 | 0.00 | 0.00 | 0.00 | 54 | 1012.6 |
| 20260904084415 | 85 | 178 | 3.0 | 9.0 | 0.00 | 0.00 | 0.00 | 54 | 1012.7 |
| 20260904083916 | 85 | 99 | 8.0 | 11.0 | 0.00 | 0.00 | 0.00 | 54 | 1012.7 |
| 20260904083415 | 85 | 183 | 4.0 | 8.0 | 0.00 | 0.00 | 0.00 | 54 | 1012.7 |
| 20260904082916 | 86 | 128 | 3.0 | 7.0 | 0.00 | 0.00 | 0.00 | 54 | 1012.8 |
| 20260904082415 | 86 | 159 | 2.0 | 10.0 | 0.00 | 0.00 | 0.00 | 53 | 1012.8 |
| 20260904081915 | 86 | 155 | 4.0 | 13.0 | 0.00 | 0.00 | 0.00 | 53 | 1012.8 |
| 20260904081415 | 86 | 121 | 5.0 | 10.0 | 0.00 | 0.00 | 0.00 | 53 | 1012.9 |
| 20260904080915 | 86 | 94 | 8.0 | 9.0 | 0.00 | 0.00 | 0.00 | 53 | 1012.8 |
| 20260904080415 | 86 | 138 | 3.0 | 12.0 | 0.00 | 0.00 | 0.00 | 52 | 1012.8 |
| 20260904075914 | 86 | 155 | 6.0 | 8.0 | 0.00 | 0.00 | 0.00 | 52 | 1012.9 |
| 20260904075416 | 86 | 134 | 1.0 | 8.0 | 0.00 | 0.00 | 0.00 | 52 | 1012.8 |
| 20260904074916 | 86 | 148 | 6.0 | 7.0 | 0.00 | 0.00 | 0.00 | 52 | 1012.8 |
| 20260904074416 | 86 | 126 | 3.0 | 8.0 | 0.00 | 0.00 | 0.00 | 52 | 1012.8 |
| 20260904073915 | 87 | 206 | 4.0 | 8.0 | 0.00 | 0.00 | 0.00 | 52 | 1012.8 |
| 20260904073415 | 87 | 147 | 3.0 | 8.0 | 0.00 | 0.00 | 0.00 | 51 | 1012.7 |
| 20260904072915 | 87 | 123 | 4.0 | 9.0 | 0.00 | 0.00 | 0.00 | 51 | 1012.8 |
| 20260904072414 | 87 | 149 | 1.0 | 9.0 | 0.00 | 0.00 | 0.00 | 51 | 1012.7 |